Location: Blanot
(47.1713°N, 4.2340°E)
Time: 07:44:27
(UTC+00:00)

X-37B - Visible Passes

Search period start: 06 March 2021 00:00
Search period end: 16 March 2021 00:00
Orbit: 383 x 391 km, 45.0° (Epoch: 27 February)

Date Brightness Start Highest point End Pass type
(mag) Time Alt. Az. Time Alt. Az. Time Alt. Az.
11 Mar 2.7 19:17:03 10° SSW 19:18:22 16° S 19:18:22 16° S visible
12 Mar 2.9 18:19:58 10° S 18:21:15 12° SSE 18:22:32 10° ESE visible
12 Mar 2.9 19:54:18 10° SW 19:55:23 18° SW 19:55:23 18° SW visible
13 Mar 1.8 18:56:17 10° SW 18:59:04 27° SSE 18:59:58 23° SE visible
13 Mar 3.9 20:32:15 10° WSW 20:32:16 10° WSW 20:32:16 10° WSW visible
14 Mar 1.2 19:33:59 10° WSW 19:36:45 46° SSW 19:36:45 46° SSW visible
15 Mar 1.4 18:35:49 10° SW 18:38:49 38° SSE 18:41:10 15° E visible
15 Mar 2.8 20:12:05 10° W 20:13:28 23° WSW 20:13:28 23° WSW visible
